Wind_Speed
15 17 18 20 21 21 21 22 22 21 21 20 19 18 16 14 12 9 6 4 4 6 8 11 15 17 20 22 24 26 29 29 31 33 36 37 38 38 38 37 36 36 36
15 16 17 18 20 21 21 21 21 21 21 20 20 19 17 15 13 10 7 5 3 4 7 9 13 15 18 21 22 24 26 28 29 31 34 35 36 36 37 37 37 37 36
15 16 17 18 19 20 20 21 21 21 21 21 20 19 18 16 14 12 9 6 4 3 4 7 10 13 15 18 20 22 24 26 28 29 32 33 34 35 36 37 38 37 37
14 15 16 17 18 19 19 20 20 20 20 20 20 19 18 16 15 13 10 7 5 3 3 6 8 11 13 15 18 20 23 25 26 27 29 32 33 34 35 36 38 38 37
14 15 16 16 17 17 18 18 19 19 20 20 19 18 18 16 15 14 11 9 6 4 2 3 5 8 11 13 15 18 21 23 24 25 26 29 31 32 34 35 36 37 37
14 15 15 16 16 16 17 17 18 18 19 19 19 18 17 16 15 14 12 10 8 6 4 3 4 6 8 11 13 16 18 20 22 23 24 26 27 28 30 33 34 35 36
14 14 15 15 16 15 16 16 17 17 17 18 18 18 17 16 15 14 13 11 8 7 5 4 3 3 6 8 11 13 16 18 19 21 23 24 25 27 28 30 32 32 32
14 14 15 15 15 15 15 15 16 16 16 17 17 17 16 15 15 14 14 12 10 8 6 5 3 2 3 6 8 11 13 15 18 19 20 22 24 25 27 29 31 32 33
14 14 14 15 15 15 15 15 15 15 16 16 16 16 15 15 14 14 13 12 11 9 7 6 4 3 3 4 6 9 11 14 16 18 19 20 22 23 24 27 30 31 32
14 14 15 15 15 15 15 15 15 15 15 16 15 15 15 14 14 14 13 12 11 10 8 7 5 5 5 5 5 7 9 12 14 16 18 20 21 23 24 25 27 29 31
15 15 15 15 15 15 15 15 15 16 16 16 15 15 14 14 14 13 13 12 11 10 9 8 7 6 6 6 6 7 8 10 12 14 16 18 19 21 23 24 26 28 30
16 16 16 16 16 16 16 16 16 16 16 16 15 15 14 14 14 14 13 13 12 11 10 9 8 7 7 7 8 8 9 10 12 14 15 16 18 19 20 22 24 26 28
17 17 17 17 17 17 17 17 17 17 17 16 16 15 15 15 15 14 14 14 13 12 11 11 10 10 9 9 9 10 11 12 13 14 15 17 19 20 20 21 23 26 28
18 18 18 18 18 18 17 17 17 18 17 17 17 16 16 16 16 15 15 15 14 14 13 13 12 12 12 11 12 12 13 14 15 15 17 18 19 21 22 23 24 25 27
19 19 19 19 19 19 18 18 18 18 18 18 18 17 17 17 17 16 16 16 16 15 15 15 14 14 13 13 14 14 15 16 16 17 18 20 21 22 23 24 25 26 27
21 20 20 20 20 20 19 19 19 19 19 19 19 19 18 18 18 17 17 17 17 17 17 17 17 17 16 16 16 16 17 17 18 19 20 21 22 23 25 26 27 28 29
23 22 22 22 21 21 21 21 21 20 20 20 20 20 20 20 19 19 18 18 19 19 19 19 19 19 19 19 19 20 20 21 21 22 22 23 24 25 27 28 29 30 31
25 24 24 23 23 23 23 23 22 22 22 22 22 22 22 21 21 20 20 20 21 21 21 21 22 22 22 23 23 23 24 24 24 25 25 26 26 27 28 29 30 31 32
27 26 26 25 25 25 25 25 25 25 25 24 24 24 23 23 22 22 23 23 23 24 24 24 25 25 25 26 26 26 27 27 27 28 28 28 29 30 31 31 32 33 35
28 28 28 27 27 27 27 27 27 27 27 26 26 26 25 25 25 25 25 26 26 26 26 27 27 28 28 28 29 29 30 30 30 31 31 32 32 33 34 35 36 37 38
30 30 30 29 29 29 29 29 29 29 29 29 28 28 28 27 27 28 28 28 28 29 29 29 30 30 30 31 31 32 32 33 33 33 34 35 36 37 38 39 40 40 41
32 31 31 31 31 31 31 31 31 31 31 31 30 30 30 30 30 30 31 31 31 31 32 32 32 32 33 33 33 33 34 34 35 36 36 37 38 40 41 42 43 44 44
34 34 33 33 33 33 33 33 33 32 32 32 32 32 32 32 32 33 33 33 34 34 34 34 34 34 35 35 35 35 36 37 38 39 39 40 41 42 43 44 45 45 46
37 36 36 35 35 35 35 35 34 34 34 34 34 34 34 34 35 35 35 36 36 36 36 36 36 36 36 36 37 38 38 39 40 41 42 43 43 44 45 46 46 47 47
38 38 38 37 37 37 37 36 36 36 35 36 36 36 36 36 36 37 37 37 37 37 37 37 37 37 38 38 39 40 40 41 42 43 43 44 45 45 46 47 47 48 48
39 40 39 39 38 38 38 37 37 37 37 37 37 37 37 37 37 38 38 38 38 38 39 39 39 39 40 40 41 41 42 42 42 43 44 44 45 45 46 46 46 46 47
Wind_Direction
348 352 356 359 1 3 4 5 6 8 8 8 7 7 6 4 0 354 339 314 276 248 234 226 223 221 224 225 228 229 228 227 226 227 226 227 230 229 228 227 228 230 231
344 348 352 356 359 1 3 5 7 9 10 9 9 10 10 9 8 5 359 341 304 259 237 228 225 224 226 226 227 228 228 228 227 227 228 230 231 231 230 229 229 231 233
340 344 348 353 356 359 1 4 7 8 9 10 10 11 11 12 14 12 5 356 340 293 250 237 232 228 229 230 229 228 228 228 227 227 228 230 231 232 231 231 231 233 234
337 341 345 349 352 356 359 2 5 7 8 8 9 9 11 12 12 13 12 4 350 319 267 247 238 231 231 231 229 229 227 227 227 227 228 229 232 232 232 232 231 232 233
332 338 342 345 348 351 354 357 1 4 6 7 8 8 11 12 13 12 13 13 8 350 308 263 241 233 231 230 229 228 226 227 227 228 229 229 231 233 233 233 233 233 236
327 333 338 341 345 347 350 353 357 360 2 5 7 9 10 11 12 13 14 15 15 11 355 312 264 245 235 231 228 227 227 228 229 230 230 230 232 233 234 234 234 236 239
321 326 332 337 340 343 345 349 352 356 360 2 4 6 8 10 12 12 12 14 15 15 11 355 323 276 242 236 235 234 231 231 231 232 232 231 234 235 236 236 236 238 241
315 321 327 331 335 338 341 344 347 351 355 358 0 2 4 6 8 10 11 12 12 11 11 8 359 322 260 243 241 240 238 235 234 233 234 235 236 237 237 238 238 240 242
309 315 322 326 331 334 337 339 342 345 348 351 354 357 359 1 2 5 6 7 7 7 2 0 356 343 316 271 252 245 240 238 237 236 235 237 238 238 240 241 242 243 244
304 309 315 320 324 328 331 334 337 340 344 346 348 349 352 355 357 358 360 360 358 355 354 350 338 325 309 293 269 254 246 241 239 238 238 241 243 244 245 245 245 245 246
300 305 309 314 318 321 324 328 332 334 337 339 341 342 344 347 349 351 352 352 350 346 341 338 332 324 310 295 284 272 261 253 247 245 244 244 247 249 249 249 248 248 248
295 300 304 308 312 315 317 321 324 327 330 332 333 334 335 337 339 341 343 343 341 338 333 329 325 317 308 297 288 279 271 266 259 254 252 251 252 252 254 252 252 251 250
290 295 300 304 307 310 312 314 317 319 322 325 326 326 327 328 328 329 331 332 331 330 327 323 318 312 304 295 288 282 275 270 265 262 261 259 259 259 258 259 258 255 255
287 291 296 299 303 306 308 310 312 314 316 318 320 320 320 320 321 320 321 322 322 321 320 317 314 310 305 298 291 284 279 275 271 268 266 267 267 265 264 264 263 261 260
284 288 292 296 299 301 304 306 309 310 312 313 314 315 315 315 316 316 315 315 315 313 313 311 309 306 303 299 294 289 284 281 277 274 272 271 271 270 269 269 268 265 263
281 285 288 292 294 297 299 302 305 307 308 309 310 311 312 312 312 312 311 311 311 310 308 306 304 302 299 297 294 290 287 284 282 280 278 277 274 273 272 271 270 268 268
279 282 285 288 290 293 295 298 301 303 304 305 306 307 308 308 307 308 308 309 308 307 306 303 301 299 297 294 292 291 289 287 285 284 282 280 279 277 276 274 272 271 270
276 279 282 285 287 290 293 295 297 300 301 301 303 304 304 304 303 303 304 305 305 305 304 302 299 297 294 292 290 289 288 287 286 285 284 282 281 280 279 278 277 275 274
275 277 280 282 285 288 291 293 295 297 298 299 299 300 300 300 299 299 300 301 302 302 301 300 299 297 294 292 289 288 287 287 286 286 285 284 284 283 282 281 280 278 277
272 275 277 280 283 286 289 291 292 294 296 297 297 297 297 298 297 298 299 300 301 301 300 299 298 297 295 293 290 288 287 287 286 285 285 285 285 284 284 283 281 280 279
271 273 275 278 282 285 287 289 291 292 293 295 295 296 296 296 296 297 298 299 299 300 300 299 298 297 296 293 291 290 288 288 287 286 285 285 285 285 285 284 282 281 280
270 272 274 277 280 283 285 288 289 290 291 293 294 294 294 295 295 296 297 298 298 299 299 298 297 297 296 295 293 292 291 290 289 288 287 287 287 287 286 285 284 283 282
269 271 273 276 279 281 284 285 287 288 289 291 292 292 293 294 295 296 296 297 297 297 298 297 297 296 296 295 294 293 292 291 290 289 289 288 288 288 287 287 286 284 283
267 270 273 275 278 280 282 283 285 286 288 289 291 291 291 292 293 294 295 295 296 296 297 297 296 296 296 296 295 294 294 293 292 290 290 290 289 289 288 288 287 285 284
267 270 272 274 277 279 280 282 283 284 286 288 290 290 291 292 293 294 294 295 295 295 296 296 296 296 296 296 295 295 294 294 293 292 291 291 291 290 289 289 288 286 285
267 269 272 274 276 277 279 280 281 283 285 287 288 289 290 292 293 294 295 295 294 294 295 295 296 296 296 296 296 296 296 296 295 294 293 293 292 292 291 290 290 288 287
Height
5816 5813 5809 5804 5800 5795 5790 5785 5780 5775 5770 5765 5760 5756 5752 5749 5746 5743 5741 5740 5740 5740 5741 5742 5745 5747 5750 5753 5756 5760 5763 5767 5771 5776 5780 5785 5790 5795 5800 5804 5809 5813 5817
5815 5812 5808 5804 5799 5795 5790 5785 5780 5775 5770 5766 5761 5757 5753 5749 5746 5743 5741 5740 5739 5739 5739 5741 5742 5744 5747 5749 5752 5755 5758 5762 5766 5770 5774 5779 5784 5788 5793 5798 5802 5806 5810
5814 5811 5807 5803 5799 5794 5790 5785 5781 5776 5771 5767 5762 5758 5754 5750 5747 5744 5741 5740 5738 5738 5738 5739 5740 5742 5744 5746 5748 5750 5753 5757 5761 5765 5769 5773 5777 5782 5786 5791 5795 5799 5803
5812 5809 5806 5802 5798 5794 5790 5785 5781 5777 5772 5768 5763 5759 5755 5751 5748 5745 5742 5740 5739 5738 5737 5737 5738 5739 5741 5742 5744 5746 5749 5752 5756 5760 5764 5768 5771 5775 5780 5784 5788 5792 5796
5811 5808 5804 5801 5797 5793 5790 5785 5781 5777 5773 5768 5764 5760 5756 5752 5749 5746 5743 5740 5739 5738 5737 5736 5736 5737 5738 5740 5741 5743 5746 5749 5752 5755 5759 5762 5766 5770 5774 5777 5781 5785 5788
5809 5806 5803 5799 5796 5793 5789 5785 5781 5777 5773 5769 5765 5761 5757 5754 5750 5747 5744 5741 5739 5737 5736 5736 5735 5735 5736 5737 5739 5741 5743 5745 5748 5751 5754 5757 5761 5764 5767 5771 5775 5778 5782
5806 5804 5801 5798 5795 5791 5788 5785 5781 5777 5773 5769 5765 5762 5758 5755 5751 5748 5745 5742 5740 5738 5737 5735 5734 5734 5734 5735 5737 5738 5740 5742 5744 5747 5749 5752 5755 5758 5762 5765 5768 5771 5774
5804 5801 5799 5796 5793 5790 5787 5783 5780 5777 5773 5769 5765 5762 5758 5755 5752 5749 5746 5743 5741 5739 5737 5735 5734 5734 5733 5734 5734 5735 5737 5738 5740 5742 5745 5747 5750 5753 5756 5759 5761 5763 5766
5801 5799 5796 5793 5791 5788 5785 5782 5779 5775 5772 5769 5765 5762 5759 5755 5752 5749 5746 5744 5741 5739 5737 5736 5734 5733 5733 5732 5733 5733 5734 5735 5737 5738 5740 5742 5745 5747 5749 5751 5754 5756 5759
5797 5795 5793 5791 5788 5785 5783 5780 5777 5774 5771 5768 5765 5761 5758 5755 5752 5749 5746 5744 5741 5739 5737 5735 5734 5733 5732 5732 5731 5731 5731 5732 5734 5735 5737 5738 5740 5742 5743 5745 5747 5749 5751
5794 5792 5790 5788 5785 5783 5780 5777 5775 5772 5769 5766 5763 5760 5757 5754 5752 5749 5746 5744 5741 5739 5737 5735 5734 5732 5731 5731 5730 5730 5730 5730 5731 5732 5733 5734 5735 5736 5738 5739 5740 5741 5743
5790 5788 5786 5784 5782 5780 5777 5775 5772 5769 5767 5764 5761 5758 5756 5753 5750 5748 5745 5743 5740 5738 5736 5734 5732 5731 5730 5729 5728 5728 5728 5728 5728 5728 5729 5730 5730 5731 5731 5732 5733 5734 5735
5785 5784 5782 5780 5778 5776 5774 5771 5769 5766 5764 5761 5759 5756 5753 5751 5748 5746 5743 5741 5738 5736 5734 5732 5731 5729 5728 5727 5726 5725 5725 5725 5725 5725 5725 5725 5725 5725 5725 5725 5726 5726 5727
5780 5779 5778 5776 5774 5772 5770 5767 5765 5763 5760 5758 5755 5753 5750 5748 5746 5743 5741 5738 5736 5734 5732 5730 5728 5727 5726 5724 5723 5722 5722 5721 5721 5720 5720 5720 5720 5719 5719 5719 5719 5719 5719
5775 5774 5772 5771 5769 5767 5765 5763 5761 5759 5756 5754 5751 5749 5747 5744 5742 5740 5737 5735 5733 5731 5729 5727 5725 5724 5722 5721 5719 5718 5717 5716 5715 5715 5714 5714 5713 5713 5712 5712 5711 5711 5711
5769 5768 5767 5765 5764 5762 5760 5758 5756 5754 5752 5749 5747 5745 5742 5740 5738 5736 5734 5731 5729 5727 5725 5723 5721 5720 5718 5717 5715 5714 5712 5711 5710 5709 5708 5707 5706 5705 5705 5704 5703 5703 5702
5762 5761 5760 5759 5758 5756 5754 5753 5751 5749 5747 5745 5742 5740 5738 5736 5733 5731 5729 5727 5725 5723 5721 5719 5717 5715 5713 5711 5710 5708 5707 5705 5703 5702 5701 5699 5698 5697 5696 5695 5694 5693 5692
5755 5754 5753 5752 5751 5749 5748 5746 5745 5743 5741 5739 5737 5735 5732 5730 5728 5726 5724 5722 5720 5717 5715 5713 5711 5709 5707 5705 5703 5702 5700 5698 5696 5694 5693 5691 5690 5688 5687 5686 5684 5683 5682
5747 5747 5746 5745 5743 5742 5741 5739 5737 5736 5734 5732 5730 5728 5726 5724 5722 5720 5718 5716 5713 5711 5709 5706 5704 5702 5700 5698 5696 5694 5692 5690 5688 5686 5684 5682 5680 5679 5677 5675 5674 5672 5671
5738 5738 5737 5736 5735 5734 5733 5731 5730 5728 5726 5724 5723 5721 5719 5717 5715 5713 5711 5708 5706 5704 5701 5699 5696 5694 5691 5689 5687 5685 5683 5680 5678 5676 5674 5672 5670 5668 5666 5664 5662 5661 5659
5729 5729 5728 5727 5727 5726 5724 5723 5721 5720 5718 5716 5714 5712 5711 5709 5707 5705 5702 5700 5698 5695 5693 5690 5687 5685 5682 5680 5677 5675 5672 5670 5668 5666 5663 5661 5659 5656 5654 5652 5649 5647 5645
5719 5719 5719 5718 5717 5717 5715 5714 5712 5711 5709 5707 5706 5704 5702 5700 5698 5696 5693 5691 5688 5686 5683 5680 5678 5675 5672 5669 5667 5664 5662 5659 5657 5654 5652 5649 5646 5644 5641 5638 5635 5632 5630
5709 5709 5708 5708 5707 5707 5706 5704 5703 5701 5700 5698 5696 5694 5692 5690 5688 5686 5684 5681 5678 5676 5673 5670 5667 5664 5661 5658 5656 5653 5650 5647 5644 5641 5639 5636 5633 5629 5626 5623 5619 5616 5614
5697 5698 5697 5697 5697 5696 5695 5694 5693 5691 5690 5688 5686 5684 5682 5680 5678 5676 5673 5671 5668 5665 5662 5659 5656 5653 5650 5647 5644 5641 5637 5634 5631 5628 5625 5621 5618 5614 5610 5607 5603 5600 5597
5685 5686 5686 5686 5685 5685 5684 5683 5682 5680 5679 5677 5675 5673 5671 5669 5667 5665 5662 5659 5656 5653 5650 5647 5644 5641 5638 5635 5631 5628 5624 5620 5617 5613 5610 5606 5602 5598 5594 5591 5587 5583 5580
5673 5673 5673 5673 5673 5673 5672 5671 5670 5669 5667 5666 5664 5662 5660 5658 5655 5653 5650 5647 5644 5641 5638 5635 5632 5629 5625 5622 5618 5614 5611 5607 5602 5598 5594 5591 5587 5583 5578 5574 5570 5566 5562